Weather in Malye Kabany

Russia / Republic of Tatarstan     55°39′12″N   49°16′55″E
temp.,
°C
wind,
m/s
gust,
m/s
humid.,
%
clouds,
%
prec.,
mm/h
press.,
hPa
HPBL,
m
17 october, sun
sun1700:00+7ssw5125515 0.0 1017407
03:00+6ssw5125890 0.0 1016384
06:00+6ssw5136292 0.0 1016369
09:00+8sw6115533 0.0 1016648
12:00+11wsw6955100 0.0 10161453
15:00+11sw5752100 0.0 10151074
18:00+10sw3858100 0.0 1015264
21:00+7ssw367069 0.0 1014103
18 october, mon
mon1800:00+6sw367492 0.0 1014115
03:00+5sw348480 0.0 101377
06:00+4sw348886 0.0 101266
09:00+7sw367380 0.0 1012288
12:00+10sw4657100 0.0 1011953
15:00+10sw4656100 0.0 10091136
18:00+7ssw386798 0.0 1009203
21:00+8sw41064100 0.0 1008626
19 october, tue
tue1900:00+8wsw51064100 0.1 1008800
03:00+5wnw4780100 0.1 1009484
06:00+3wnw3484100 0.0 1011135
09:00+4wnw3472100 0.0 1011492
12:00+6w3360100 0.0 1011861
15:00+6w3458100 0.0 10111037
18:00+5wnw3467100 0.0 1011169
21:00+4nw247095 0.0 1012141
20 october, wed
wed2000:00+2nnw237699 0.0 101270
03:00+1nw348657 0.0 101292
06:000nnw359661 0.0 1013115
09:00+2nnw467667 0.0 1015652
12:00+4nnw665884 0.2 10151231
15:00+4nnw564788 0.2 10161435
18:00+1nw486372 0.0 1018225
21:000nw37715 0.0 1019162
21 october, thu
thu2100:00−2nnw23825 0.0 102050
03:00−3nw22885 0.0 102135
06:00−3w228967 0.0 102135
09:000sw3572100 0.0 1021337
12:00+3ssw5754100 0.0 1020765
15:00+4ssw61042100 0.0 1018763
18:00+3ssw6134496 0.0 1016548
21:00+4ssw71446100 0.0 1014551